User: anonymous
Location: Livonia
(42.3680°N, 83.3530°W)
Time: 14:49:17
(UTC-04:00)
Language:

MOZ.5/SAFIR/RUBIN 5/SL-8 - Orbit

View from above orbital plane
View from above orbital plane
View from above satellite
View from above satellite

Ground track
Ground track

The orbit data is extracted from the following two-line orbital elements,

1 28898U 05043G   14244.60113025  .00000278  00000-0  67472-4 0  9054
2 28898 097.8371 069.9543 0021002 152.6784 249.6148 14.59522900471076
Epoch (UTC): 01 September 2014 14:25:37
Eccentricity: 0.0021002
inclination: 97.8371°
perigee height: 680 km
apogee height: 709 km
right ascension of ascending node: 69.9543°
argument of perigee: 152.6784°
revolutions per day: 14.59522900
mean anomaly at epoch: 249.6148°
orbit number at epoch: 47107

The dashed part of the orbit path shows where the satellite is in the earth's shadow,  

DLR